PROTG SBSP-SBRJ

Flight info

Callsign PROTG
Flight time 0h 53m
Altitude 25000
Route BAIA3A NIBRU UZ171 KEVUN ASAL1A
Aircraft B350/L-SDFG/S

Departure

Time 2026-05-03 23:53
Airport Congonhas–Deputado Freitas Nobre Airport (SBSP)

Arrival

Time 2026-05-04 00:46
Airport Santos Dumont Airport (SBRJ)
Time Latitude Longitude Altitude Speed Heading
2026-05-03 23:25 -23.63018 -46.65012 2632 ft 0 kts 147°
2026-05-03 23:48 -23.63026 -46.65007 2631 ft 5 kts 167°
2026-05-03 23:49 -23.63021 -46.65056 2631 ft 13 kts 327°
2026-05-03 23:49 -23.62918 -46.65127 2628 ft 22 kts 328°
2026-05-03 23:49 -23.62760 -46.65235 2623 ft 30 kts 328°
2026-05-03 23:49 -23.62566 -46.65372 2614 ft 35 kts 327°
2026-05-03 23:50 -23.62357 -46.65515 2603 ft 17 kts 329°
2026-05-03 23:50 -23.62289 -46.65561 2600 ft 1 kts 328°
2026-05-03 23:50 -23.62239 -46.65596 2598 ft 14 kts 326°
2026-05-03 23:50 -23.62126 -46.65674 2588 ft 13 kts 326°
2026-05-03 23:51 -23.62109 -46.65702 2587 ft 8 kts 272°
2026-05-03 23:51 -23.62148 -46.65774 2590 ft 12 kts 252°
2026-05-03 23:51 -23.62155 -46.65892 2591 ft 17 kts 262°
2026-05-03 23:51 -23.62119 -46.66018 2586 ft 17 kts 331°
2026-05-03 23:52 -23.62125 -46.66026 2586 ft 3 kts 139°
2026-05-03 23:52 -23.62152 -46.66004 2590 ft 6 kts 147°
2026-05-03 23:52 -23.62262 -46.65928 2596 ft 47 kts 147°
2026-05-03 23:52 -23.62804 -46.65549 2633 ft 131 kts 146°
2026-05-03 23:53 -23.63285 -46.65134 2970 ft 145 kts 140°
2026-05-03 23:53 -23.63951 -46.64505 4053 ft 124 kts 154°
2026-05-03 23:53 -23.64705 -46.63905 4568 ft 156 kts 153°
2026-05-03 23:53 -23.65535 -46.62909 4805 ft 206 kts 121°
2026-05-03 23:54 -23.66122 -46.61357 5154 ft 233 kts 113°
2026-05-03 23:54 -23.66730 -46.59672 5610 ft 242 kts 115°
2026-05-03 23:54 -23.67434 -46.58057 6092 ft 231 kts 121°
2026-05-03 23:54 -23.68197 -46.56533 6366 ft 232 kts 123°
2026-05-03 23:55 -23.69008 -46.54998 6699 ft 229 kts 125°
2026-05-03 23:55 -23.69765 -46.53579 7423 ft 209 kts 126°
2026-05-03 23:55 -23.70458 -46.52280 8065 ft 195 kts 125°
2026-05-03 23:55 -23.71126 -46.51030 8575 ft 189 kts 126°
2026-05-03 23:56 -23.71751 -46.49771 9029 ft 191 kts 118°
2026-05-03 23:56 -23.71938 -46.48325 9416 ft 199 kts 93°
2026-05-03 23:56 -23.71783 -46.46815 9780 ft 204 kts 86°
2026-05-03 23:56 -23.71542 -46.45216 9865 ft 222 kts 85°
2026-05-03 23:57 -23.71285 -46.43518 10145 ft 225 kts 86°
2026-05-03 23:57 -23.71041 -46.41880 10672 ft 215 kts 85°
2026-05-03 23:57 -23.70811 -46.40302 11136 ft 209 kts 85°
2026-05-03 23:57 -23.70589 -46.38757 11510 ft 208 kts 85°
2026-05-03 23:58 -23.70365 -46.37193 11856 ft 210 kts 85°
2026-05-03 23:58 -23.70141 -46.35616 12173 ft 212 kts 83°
2026-05-03 23:58 -23.69913 -46.34018 12484 ft 214 kts 83°
2026-05-03 23:58 -23.69684 -46.32413 12772 ft 216 kts 83°
2026-05-03 23:59 -23.69451 -46.30777 13038 ft 218 kts 83°
2026-05-03 23:59 -23.69218 -46.29150 13325 ft 219 kts 83°
2026-05-03 23:59 -23.68983 -46.27502 13600 ft 220 kts 83°
2026-05-03 23:59 -23.68749 -46.25865 13868 ft 221 kts 82°
2026-05-04 00:00 -23.68510 -46.24195 14125 ft 223 kts 80°
2026-05-04 00:00 -23.68265 -46.22486 14185 ft 236 kts 82°
2026-05-04 00:00 -23.68006 -46.20673 14196 ft 249 kts 82°
2026-05-04 00:00 -23.67733 -46.18765 14186 ft 260 kts 81°
2026-05-04 00:01 -23.67449 -46.16784 14181 ft 268 kts 81°
2026-05-04 00:01 -23.67160 -46.14766 14163 ft 274 kts 82°
2026-05-04 00:01 -23.66862 -46.12689 14160 ft 279 kts 82°
2026-05-04 00:01 -23.66559 -46.10572 14135 ft 282 kts 82°
2026-05-04 00:02 -23.66260 -46.08482 14136 ft 282 kts 82°
2026-05-04 00:02 -23.65954 -46.06343 14131 ft 283 kts 82°
2026-05-04 00:02 -23.65650 -46.04227 14126 ft 282 kts 81°
2026-05-04 00:02 -23.65347 -46.02116 14130 ft 283 kts 81°
2026-05-04 00:03 -23.65047 -46.00031 14289 ft 275 kts 81°
2026-05-04 00:03 -23.64764 -45.98081 14928 ft 250 kts 81°
2026-05-04 00:03 -23.64505 -45.96278 15450 ft 233 kts 81°
2026-05-04 00:03 -23.64256 -45.94561 15803 ft 227 kts 81°
2026-05-04 00:04 -23.64011 -45.92865 16036 ft 227 kts 80°
2026-05-04 00:04 -23.63764 -45.91156 16231 ft 229 kts 80°
2026-05-04 00:04 -23.63517 -45.89451 16411 ft 231 kts 80°
2026-05-04 00:04 -23.63266 -45.87714 16593 ft 233 kts 79°
2026-05-04 00:05 -23.63011 -45.85951 16790 ft 235 kts 79°
2026-05-04 00:05 -23.62754 -45.84186 16966 ft 236 kts 79°
2026-05-04 00:05 -23.62501 -45.82437 17153 ft 237 kts 80°
2026-05-04 00:05 -23.62238 -45.80615 17283 ft 246 kts 80°
2026-05-04 00:06 -23.61971 -45.78768 17554 ft 246 kts 79°
2026-05-04 00:06 -23.61707 -45.76949 17850 ft 244 kts 80°
2026-05-04 00:06 -23.61442 -45.75122 18150 ft 242 kts 79°
2026-05-04 00:06 -23.61178 -45.73309 18413 ft 242 kts 78°
2026-05-04 00:07 -23.60916 -45.71509 18663 ft 243 kts 78°
2026-05-04 00:07 -23.60648 -45.69675 18906 ft 244 kts 79°
2026-05-04 00:07 -23.60382 -45.67852 19138 ft 245 kts 79°
2026-05-04 00:07 -23.60115 -45.66025 19363 ft 247 kts 78°
2026-05-04 00:08 -23.59842 -45.64160 19593 ft 248 kts 78°
2026-05-04 00:08 -23.59572 -45.62315 19840 ft 248 kts 78°
2026-05-04 00:08 -23.59302 -45.60474 20074 ft 248 kts 78°
2026-05-04 00:08 -23.59027 -45.58601 20301 ft 250 kts 79°
2026-05-04 00:09 -23.58756 -45.56750 20518 ft 250 kts 78°
2026-05-04 00:09 -23.58479 -45.54863 20745 ft 251 kts 78°
2026-05-04 00:09 -23.58203 -45.52987 20956 ft 252 kts 78°
2026-05-04 00:09 -23.57927 -45.51116 21158 ft 252 kts 79°
2026-05-04 00:10 -23.57649 -45.49224 21366 ft 253 kts 78°
2026-05-04 00:10 -23.57370 -45.47332 21573 ft 254 kts 78°
2026-05-04 00:10 -23.57068 -45.45444 21787 ft 254 kts 75°
2026-05-04 00:10 -23.56689 -45.43567 22005 ft 254 kts 73°
2026-05-04 00:11 -23.56273 -45.41709 22207 ft 255 kts 72°
2026-05-04 00:11 -23.55851 -45.39818 22419 ft 255 kts 73°
2026-05-04 00:11 -23.55439 -45.37938 22624 ft 256 kts 73°
2026-05-04 00:11 -23.55058 -45.36063 22822 ft 256 kts 75°
2026-05-04 00:12 -23.54667 -45.34169 23000 ft 257 kts 72°
2026-05-04 00:12 -23.54249 -45.32275 23157 ft 258 kts 72°
2026-05-04 00:12 -23.53832 -45.30368 23324 ft 258 kts 72°
2026-05-04 00:12 -23.53422 -45.28472 23488 ft 259 kts 72°
2026-05-04 00:13 -23.53008 -45.26551 23651 ft 259 kts 73°
2026-05-04 00:13 -23.52601 -45.24651 23811 ft 259 kts 72°
2026-05-04 00:13 -23.52192 -45.22742 23979 ft 259 kts 72°
2026-05-04 00:13 -23.51783 -45.20826 24135 ft 260 kts 72°
2026-05-04 00:14 -23.51376 -45.18915 24298 ft 259 kts 72°
2026-05-04 00:14 -23.50966 -45.16996 24455 ft 259 kts 72°
2026-05-04 00:14 -23.50563 -45.15105 24593 ft 260 kts 72°
2026-05-04 00:14 -23.50150 -45.13172 24744 ft 260 kts 72°
2026-05-04 00:15 -23.49741 -45.11254 24881 ft 260 kts 72°
2026-05-04 00:15 -23.49335 -45.09354 25023 ft 260 kts 72°
2026-05-04 00:15 -23.48924 -45.07431 25127 ft 263 kts 72°
2026-05-04 00:15 -23.48500 -45.05457 25146 ft 270 kts 72°
2026-05-04 00:16 -23.48066 -45.03434 25147 ft 278 kts 72°
2026-05-04 00:16 -23.47625 -45.01373 25148 ft 285 kts 72°
2026-05-04 00:16 -23.47173 -44.99263 25145 ft 292 kts 73°
2026-05-04 00:16 -23.46704 -44.97076 25147 ft 298 kts 73°
2026-05-04 00:17 -23.46232 -44.94871 25149 ft 304 kts 73°
2026-05-04 00:17 -23.45731 -44.92593 25149 ft 310 kts 72°
2026-05-04 00:17 -23.45225 -44.90313 25149 ft 316 kts 72°
2026-05-04 00:17 -23.44705 -44.87969 25150 ft 321 kts 72°
2026-05-04 00:18 -23.44176 -44.85584 25154 ft 325 kts 73°
2026-05-04 00:18 -23.43645 -44.83196 25149 ft 330 kts 72°
2026-05-04 00:18 -23.43101 -44.80747 25150 ft 334 kts 73°
2026-05-04 00:18 -23.42556 -44.78291 25150 ft 338 kts 73°
2026-05-04 00:19 -23.41999 -44.75785 25148 ft 341 kts 73°
2026-05-04 00:19 -23.41443 -44.73288 25149 ft 344 kts 73°
2026-05-04 00:19 -23.40872 -44.70728 25149 ft 347 kts 73°
2026-05-04 00:19 -23.40301 -44.68168 25149 ft 350 kts 73°
2026-05-04 00:20 -23.39725 -44.65585 25150 ft 352 kts 73°
2026-05-04 00:20 -23.39148 -44.63005 25150 ft 355 kts 73°
2026-05-04 00:20 -23.38565 -44.60396 25148 ft 357 kts 73°
2026-05-04 00:20 -23.37980 -44.57779 25149 ft 358 kts 73°
2026-05-04 00:21 -23.37387 -44.55133 25150 ft 360 kts 73°
2026-05-04 00:21 -23.36794 -44.52491 25148 ft 362 kts 73°
2026-05-04 00:21 -23.36192 -44.49809 25148 ft 363 kts 73°
2026-05-04 00:21 -23.35596 -44.47151 25148 ft 365 kts 73°
2026-05-04 00:22 -23.34997 -44.44490 25149 ft 366 kts 73°
2026-05-04 00:22 -23.34256 -44.41822 25144 ft 364 kts 65°
2026-05-04 00:22 -23.33244 -44.39337 25151 ft 362 kts 60°
2026-05-04 00:22 -23.32171 -44.36837 25151 ft 362 kts 60°
2026-05-04 00:23 -23.31117 -44.34377 25145 ft 360 kts 60°
2026-05-04 00:23 -23.30068 -44.31934 25139 ft 357 kts 59°
2026-05-04 00:23 -23.29014 -44.29481 25137 ft 354 kts 60°
2026-05-04 00:23 -23.27976 -44.27068 25138 ft 352 kts 59°
2026-05-04 00:24 -23.26940 -44.24660 25139 ft 350 kts 60°
2026-05-04 00:24 -23.25907 -44.22264 24888 ft 358 kts 60°
2026-05-04 00:24 -23.24842 -44.19795 24541 ft 367 kts 60°
2026-05-04 00:24 -23.23743 -44.17245 24198 ft 375 kts 60°
2026-05-04 00:25 -23.22634 -44.14670 23855 ft 381 kts 60°
2026-05-04 00:25 -23.21506 -44.12056 23514 ft 386 kts 61°
2026-05-04 00:25 -23.20357 -44.09391 23173 ft 390 kts 61°
2026-05-04 00:25 -23.19211 -44.06750 22841 ft 393 kts 61°
2026-05-04 00:26 -23.18000 -44.04085 22500 ft 395 kts 59°
2026-05-04 00:26 -23.16760 -44.01425 22158 ft 396 kts 60°
2026-05-04 00:26 -23.15507 -43.98724 21812 ft 397 kts 60°
2026-05-04 00:26 -23.14330 -43.96036 21469 ft 399 kts 62°
2026-05-04 00:27 -23.13172 -43.93292 21126 ft 399 kts 63°
2026-05-04 00:27 -23.12017 -43.90565 20801 ft 398 kts 62°
2026-05-04 00:27 -23.10850 -43.87822 20532 ft 396 kts 62°
2026-05-04 00:27 -23.09702 -43.85135 20288 ft 393 kts 62°
2026-05-04 00:28 -23.08560 -43.82462 20037 ft 391 kts 62°
2026-05-04 00:28 -23.07411 -43.79781 19758 ft 390 kts 62°
2026-05-04 00:28 -23.06275 -43.77129 19496 ft 389 kts 62°
2026-05-04 00:28 -23.05145 -43.74494 19264 ft 386 kts 62°
2026-05-04 00:29 -23.04020 -43.71873 18971 ft 379 kts 62°
2026-05-04 00:29 -23.02910 -43.69291 18618 ft 375 kts 62°
2026-05-04 00:29 -23.01797 -43.66744 18259 ft 372 kts 63°
2026-05-04 00:29 -23.00712 -43.64265 17914 ft 364 kts 62°
2026-05-04 00:30 -22.99640 -43.61814 17540 ft 349 kts 63°
2026-05-04 00:30 -22.98615 -43.59483 17167 ft 337 kts 62°
2026-05-04 00:30 -22.97628 -43.57240 16803 ft 327 kts 63°
2026-05-04 00:30 -22.96655 -43.55030 16447 ft 318 kts 63°
2026-05-04 00:31 -22.95725 -43.52920 16084 ft 310 kts 63°
2026-05-04 00:31 -22.94825 -43.50815 15714 ft 304 kts 68°
2026-05-04 00:31 -22.94308 -43.48602 15361 ft 298 kts 81°
2026-05-04 00:31 -22.94157 -43.46401 15011 ft 290 kts 93°
2026-05-04 00:32 -22.94456 -43.44303 14661 ft 281 kts 108°
2026-05-04 00:32 -22.95201 -43.42376 14301 ft 271 kts 123°
2026-05-04 00:32 -22.96290 -43.40785 13951 ft 262 kts 138°
2026-05-04 00:32 -22.97702 -43.39599 13600 ft 250 kts 157°
2026-05-04 00:33 -22.99285 -43.38968 13253 ft 240 kts 171°
2026-05-04 00:33 -23.02517 -43.38817 12543 ft 226 kts 194°
2026-05-04 00:33 -23.04006 -43.39223 12214 ft 220 kts 203°
2026-05-04 00:34 -23.05374 -43.39921 11881 ft 215 kts 215°
2026-05-04 00:34 -23.06563 -43.40872 11542 ft 211 kts 225°
2026-05-04 00:34 -23.07546 -43.42041 11198 ft 207 kts 235°
2026-05-04 00:34 -23.08283 -43.43353 10847 ft 204 kts 245°
2026-05-04 00:35 -23.08775 -43.44784 10502 ft 202 kts 255°
2026-05-04 00:35 -23.09015 -43.46277 10145 ft 201 kts 264°
2026-05-04 00:35 -23.08999 -43.47798 9770 ft 201 kts 274°
2026-05-04 00:35 -23.08729 -43.49268 9418 ft 202 kts 283°
2026-05-04 00:36 -23.08247 -43.50692 9059 ft 201 kts 288°
2026-05-04 00:36 -23.07739 -43.52120 8689 ft 201 kts 288°
2026-05-04 00:36 -23.07234 -43.53520 8333 ft 201 kts 288°
2026-05-04 00:36 -23.06713 -43.54944 7926 ft 203 kts 289°
2026-05-04 00:37 -23.06188 -43.56359 7542 ft 204 kts 287°
2026-05-04 00:37 -23.05652 -43.57783 7145 ft 205 kts 290°
2026-05-04 00:37 -23.05107 -43.59215 6796 ft 205 kts 289°
2026-05-04 00:37 -23.04558 -43.60631 6447 ft 205 kts 293°
2026-05-04 00:38 -23.03699 -43.61863 6115 ft 210 kts 319°
2026-05-04 00:38 -23.02393 -43.62511 5988 ft 201 kts 349°
2026-05-04 00:38 -23.01065 -43.62462 5927 ft 184 kts 15°
2026-05-04 00:38 -22.99992 -43.61876 5936 ft 162 kts 44°
2026-05-04 00:39 -22.99259 -43.60960 5960 ft 172 kts 64°
2026-05-04 00:39 -22.98652 -43.59701 6013 ft 207 kts 68°
2026-05-04 00:39 -22.97996 -43.58176 6005 ft 237 kts 70°
2026-05-04 00:39 -22.97254 -43.56484 6012 ft 258 kts 68°
2026-05-04 00:40 -22.96460 -43.54667 6004 ft 274 kts 68°
2026-05-04 00:40 -22.95642 -43.52767 6005 ft 281 kts 68°
2026-05-04 00:40 -22.94808 -43.50817 5950 ft 286 kts 67°
2026-05-04 00:40 -22.93976 -43.48866 5993 ft 287 kts 67°
2026-05-04 00:41 -22.93132 -43.46875 5963 ft 289 kts 68°
2026-05-04 00:41 -22.92296 -43.44909 5930 ft 287 kts 68°
2026-05-04 00:41 -22.91465 -43.42946 5641 ft 287 kts 68°
2026-05-04 00:41 -22.90625 -43.40970 5265 ft 286 kts 68°
2026-05-04 00:42 -22.89801 -43.39022 4934 ft 286 kts 69°
2026-05-04 00:42 -22.88973 -43.37072 4765 ft 278 kts 68°
2026-05-04 00:42 -22.88403 -43.35136 4704 ft 265 kts 84°
2026-05-04 00:42 -22.88322 -43.33216 4697 ft 250 kts 94°
2026-05-04 00:43 -22.88376 -43.31321 4214 ft 251 kts 95°
2026-05-04 00:43 -22.88452 -43.29464 3845 ft 244 kts 96°
2026-05-04 00:43 -22.88534 -43.27668 3482 ft 238 kts 98°
2026-05-04 00:43 -22.88827 -43.25919 3075 ft 233 kts 107°
2026-05-04 00:44 -22.89356 -43.24275 2718 ft 227 kts 114°
2026-05-04 00:44 -22.89941 -43.22714 2357 ft 221 kts 114°
2026-05-04 00:44 -22.90618 -43.21278 1991 ft 213 kts 129°
2026-05-04 00:44 -22.91606 -43.20133 1617 ft 205 kts 152°
2026-05-04 00:45 -22.92853 -43.19502 1449 ft 189 kts 149°
2026-05-04 00:45 -22.93579 -43.18469 1392 ft 160 kts 105°
2026-05-04 00:45 -22.93516 -43.17335 1162 ft 153 kts 82°
2026-05-04 00:45 -22.93292 -43.16280 865 ft 134 kts 57°
2026-05-04 00:46 -22.92529 -43.16003 346 ft 128 kts 336°
2026-05-04 00:46 -22.91689 -43.16240 52 ft 118 kts 353°
2026-05-04 00:46 -22.91002 -43.16300 18 ft 73 kts 350°
2026-05-04 00:46 -22.90776 -43.16307 18 ft 18 kts 355°
2026-05-04 00:47 -22.90604 -43.16319 18 ft 29 kts 357°
2026-05-04 00:47 -22.90481 -43.16376 19 ft 17 kts 266°
2026-05-04 00:47 -22.90487 -43.16463 21 ft 0 kts 266°
2026-05-04 00:49 -22.90488 -43.16473 21 ft 5 kts 266°
2026-05-04 00:49 -22.90498 -43.16551 22 ft 13 kts 238°
2026-05-04 00:49 -22.90595 -43.16562 22 ft 16 kts 178°
2026-05-04 00:50 -22.90726 -43.16555 22 ft 20 kts 177°
2026-05-04 00:50 -22.90808 -43.16535 22 ft 12 kts 108°
2026-05-04 00:50 -22.90816 -43.16486 21 ft 3 kts 149°
2026-05-04 00:50 -22.90859 -43.16480 21 ft 9 kts 175°
2026-05-04 00:51 -22.90884 -43.16478 21 ft 0 kts 174°
2026-05-04 00:51 -22.90885 -43.16478 21 ft 0 kts 174°